Regional Weather Roundup
Issued by NWS

Home | Current Version | Previous Version | Graphics & Text | Print | Product List | Glossary Off
Versions: 1 2 3 4 5 6 7 8 9 10 11 12 13 14 15 16 17 18 19 20 21 22 23 24 25 26 27 28 29 30 31 32 33 34 35 36 37 38 39 40 41 42 43 44 45 46 47 48 49 50

000
ASUS43 KDMX 270707
RWRIA

WEATHER ROUNDUP FOR IOWA
NATIONAL WEATHER SERVICE DES MOINES IA
200 AM CDT MON JUL 27 2015

NOTE: "FAIR" INDICATES FEW OR NO CLOUDS BELOW 12,000 FEET WITH NO
SIGNIFICANT WEATHER AND/OR OBSTRUCTIONS TO VISIBILITY.

* - THESE STATIONS ARE NOT NWS STATIONS...THUS NOT UNDER NWS
QUALITY CONTROL.  THEY ALSO DO NOT REPORT WEATHER SUCH
AS PRECIPITATION OR FOG.

IAZ001>003-012>014-020>022-031>034-043>046-270800-
   NORTHWEST IOWA

CITY           SKY/WX    TMP DP  RH WIND       PRES   REMARKS
CARROLL *      MOCLDY    73  73 100 CALM      29.94R
CHEROKEE *     CLOUDY    73  73 100 CALM      29.93R
DENISON *      CLOUDY    75  73  94 E5        29.91S
LE MARS *      MOCLDY    77  73  88 SE5       29.91S
ORANGE CITY *  CLEAR     73  72  94 CALM      29.92F
SHELDON *      MOCLDY    72  72 100 E6        29.92S
SIOUX CITY     CLOUDY    77  73  87 SE7       29.89S
SPENCER        CLOUDY    73  69  87 E3        29.95R
STORM LAKE *   CLEAR     73  72  94 SE6       29.95R
$$

IAZ055>058-069>071-079>083-090>094-270800-
   SOUTHWEST IOWA

CITY           SKY/WX    TMP DP  RH WIND       PRES   REMARKS
ATLANTIC *     CLOUDY    75  75 100 CALM      29.93R FOG
AUDUBON *      PTCLDY    73  70  88 CALM      29.95R
CLARINDA *     CLEAR     77  77 100 CALM      29.93R
COUNCIL BLFS * CLEAR     77  75  94 SE6       29.91F
CRESTON *      MOCLDY    75  73  94 E6        29.94R
HARLAN  *      MOCLDY    73  73 100 CALM      29.96R
LAMONI         PTCLDY    78  74  87 SE3       29.93R HX  81
RED OAK *      CLEAR     77  77 100 CALM      29.92R
SHENANDOAH *     N/A     77  77 100 CALM      29.91S
$$

IAZ047>049-059>061-072>074-084-270800-
   CENTRAL IOWA

CITY           SKY/WX    TMP DP  RH WIND       PRES   REMARKS
AMES           MOCLDY    75  73  93 CALM      29.93R
ANKENY *       CLEAR     73  73 100 CALM      29.93R
CHARITON *     CLEAR     75  73  94 SE3       29.94R
DES MOINES     MOCLDY    79  72  79 SE6       29.93R HX  82
GRINNELL*      PTCLDY    73  72  94 E6        29.95R
KNOXVILLE *    MOCLDY    75  73  94 CALM      29.92S
MARSHALLTOWN   MOCLDY    72  71  97 E3        29.94R
PELLA *        CLEAR     73  73 100 CALM      29.94S
PERRY *          N/A     73  73 100 E5        29.94R
$$

IAZ004>006-015-016-023>025-035-036-270800-
   NORTH CENTRAL IOWA

CITY           SKY/WX    TMP DP  RH WIND       PRES   REMARKS
ALGONA *       CLEAR     73  73 100 SE6       29.95S
CLARION *      MOCLDY    73  72  94 E7        29.95S
ESTHERVILLE    CLOUDY    71  71 100 S5        29.95R
FORT DODGE *   CLOUDY    72  70  94 E5        29.96R
MASON CITY     MOCLDY    72  71  97 SE8       29.97S
FOREST CITY *  MOCLDY    72  70  94 SE6       29.96S
IOWA FALLS *     N/A     72  70  94 E3        29.96R
$$

IAZ007>011-017>019-026>030-037>042-050>054-066-270800-
   NORTHEAST IOWA

CITY           SKY/WX    TMP DP  RH WIND       PRES   REMARKS
CEDAR RAPIDS   PTCLDY    71  71 100 E3        29.94F
CHARLES CITY * PTCLDY    72  72 100 E7        29.98R
CLINTON *      PTCLDY    66  64  94 E6        29.98S
DUBUQUE        PTCLDY    68  64  87 CALM      29.97F
MONTICELLO *   CLEAR     68  66  94 CALM      29.96R
OELWEIN *      MOCLDY    70  68  94 SE6       29.97S
WATERLOO       MOCLDY    71  70  96 E6        29.95R
$$

IAZ064-065-067-068-078-270800-
   EAST CENTRAL IOWA

CITY           SKY/WX    TMP DP  RH WIND       PRES   REMARKS
DAVENPORT      PTCLDY    68  66  93 E7        29.95F
IOWA CITY      PTCLDY    73  70  90 E3        29.95S
MT. PLEASANT * PTCLDY    73  70  88 E3        29.93S
MUSCATINE *    CLEAR     72  70  94 E3        29.94S
QUAD CITIES    PTCLDY    70  67  90 E7        29.95S
$$

IAZ062-063-075>077-085>089-095>099-270800-
   SOUTHEAST IOWA

CITY           SKY/WX    TMP DP  RH WIND       PRES   REMARKS
BURLINGTON     CLEAR     73  73 100 E5        29.92F
FAIRFIELD *    CLEAR     73  72  94 CALM      29.93S
FORT MADISON * CLEAR     72  72 100 CALM      29.94S
KEOKUK *       CLEAR     75  73  94 SE3       29.91F
OSKALOOSA *      N/A     73  72  94 SE3       29.94R
CENTERVILLE *  CLEAR     73  73 100 CALM      29.95R
OTTUMWA        CLEAR     74  73  97 E3        29.92R
WASHINGTON *   CLEAR     72  72 100 E3        29.95R FOG
$$

ABBREVIATIONS USED IN REMARKS
   TC - TEMPERATURES IN CELSIUS
  WCI - WIND CHILL INDEX
   HX - HEAT INDEX
  VSB - VISIBILITY
$$




USA.gov is the U.S. government's official web portal to all federal, state and local government web resources and services.